[[{"header":{"parameterUnit":"m.s-1","parameterCategory":1,"la1":30.2992,"la2":30.254,"lo1":-89.0895,"lo2":-89.0443,"dy":0.0025,"dx":0.0025,"nx":19,"ny":19,"refTime":"2026-03-19T09:00:00:Z","depth":0,"parameterNumber":2,"parameterNumberName":"U-component_of_WINDS"},"data":[0,0,0,1.1492,1.1492,1.1501,1.1501,1.1522,1.1522,0,0,0,0,0,0,0,0,0,0,0,1.1495,1.1495,1.1492,1.1492,1.1501,1.1501,1.1522,1.1522,0,0,0,0,0,0,0,0,0,0,0,1.1495,1.1495,1.1496,1.1493,1.1501,1.1501,1.1522,1.1512,0,0,0,0,0,0,0,0,0,0,1.1502,1.151,1.1495,1.1496,1.1493,1.1501,1.1501,1.1511,1.1513,1.1522,0,1.1532,0,1.1528,1.1524,1.1525,0,0,0,1.1488,1.1509,1.1506,1.1496,1.1493,1.1501,1.1496,1.1512,1.1514,1.1524,1.1532,1.1533,1.1528,1.1525,1.1525,1.1593,1.1594,0,0,1.1488,1.1499,1.1505,1.1507,1.1506,1.1496,1.1496,1.1513,1.1522,1.1532,1.1533,1.1528,1.1525,1.1525,1.1593,1.1594,0,0,0,1.1489,1.1499,1.1496,1.1507,1.1508,1.1496,1.1497,1.1522,1.152,1.1533,1.1529,1.1525,1.1525,1.1592,1.1593,1.163,0,0,0,1.1489,1.15,1.1496,1.1503,1.1508,1.1515,1.1506,1.1519,1.152,1.1528,1.1525,1.1526,1.1592,1.1593,1.1628,1.1645,0,0,0,1.1493,1.15,1.1503,1.1504,1.1508,1.1514,1.1513,1.1519,1.1518,1.1525,1.1526,1.1591,1.1593,1.1626,1.1642,1.1667,0,0,0,1.15,1.1535,1.1504,1.1542,1.1508,1.1537,1.1513,1.1533,1.1544,1.1525,1.1592,1.1593,1.1625,1.164,1.1665,1.169,1.1702,0,0,1.1551,1.1542,1.1563,1.1536,1.1573,1.1534,1.1577,1.1575,1.1566,1.1585,1.1586,1.1628,1.1642,1.1667,1.1763,1.1772,0,0,0,1.1584,1.1599,1.1607,1.1617,1.1617,1.1619,1.161,1.161,1.1626,1.1578,1.1644,1.1651,1.1666,1.1677,1.1685,1.1697,1.1599,1.1599,1.1599,1.1672,1.1658,1.1693,1.1681,1.1692,1.1683,1.1691,1.1689,1.1671,1.1687,1.1692,1.1753,1.1767,1.1773,1.1785,1.1705,1.1705,1.1705,1.1705,1.1746,1.1766,1.1743,1.1769,1.1754,1.1776,1.1769,1.1756,1.1775,1.1747,1.1759,1.173,1.1783,1.1793,1.1708,1.1707,1.1707,1.1707,1.1706,1.1803,1.181,1.1809,1.1824,1.1838,1.1824,1.1843,1.1829,1.1816,1.1828,1.1833,1.1832,1.183,1.1831,1.1831,1.1832,1.1832,1.1832,1.1832,1.1861,1.186,1.1877,1.1882,1.1887,1.1893,1.1886,1.1891,1.1894,1.1882,1.1882,1.1863,1.1791,1.1773,1.1835,1.1835,1.1834,1.1834,1.1834,1.1941,1.1921,1.1949,1.1955,1.196,1.1974,1.1957,1.1969,1.1972,1.1982,1.1961,1.191,1.1899,1.1893,1.1878,1.1963,1.1963,1.1963,1.1963,1.1989,1.1983,1.2008,1.2019,1.2028,1.2015,1.2048,1.2043,1.2035,1.2036,1.2021,1.2001,1.1995,1.1988,1.1979,1.1965,1.2071,1.2071,1.2071,1.2038,1.2032,1.2062,1.2054,1.2057,1.2061,1.2091,1.2105,1.2091,1.2075,1.2036,1.2032,1.1998,1.1988,1.1971,1.1958,1.1932,0,0]},{"header":{"parameterUnit":"m.s-1","parameterCategory":1,"la1":30.2992,"la2":30.254,"lo1":-89.0895,"lo2":-89.0443,"dy":0.0025,"dx":0.0025,"nx":19,"ny":19,"refTime":"2026-03-19T09:00:00:Z","depth":0,"parameterNumber":3,"parameterNumberName":"V-component_of_WINDS"},"data":[0,0,0,-1.0974,-1.0975,-1.1,-1.1,-1.1039,-1.1039,0,0,0,0,0,0,0,0,0,0,0,-1.097,-1.0971,-1.0974,-1.0975,-1.1,-1.1,-1.1039,-1.1039,0,0,0,0,0,0,0,0,0,0,0,-1.097,-1.0971,-1.0971,-1.0975,-1.1,-1.1,-1.1038,-1.1017,0,0,0,0,0,0,0,0,0,0,-1.0992,-1.0991,-1.097,-1.0971,-1.0975,-1.1,-1.1,-1.1016,-1.1019,-1.103,0,-1.104,0,-1.1041,-1.1042,-1.1042,0,0,0,-1.0972,-1.0989,-1.0993,-1.0971,-1.0976,-1.1,-1.0988,-1.1017,-1.102,-1.1033,-1.1041,-1.1042,-1.1041,-1.1042,-1.1042,-1.1118,-1.1118,0,0,-1.0971,-1.0976,-1.0991,-1.0995,-1.0991,-1.0987,-1.0989,-1.1019,-1.1028,-1.1041,-1.1043,-1.1042,-1.1043,-1.1043,-1.1117,-1.1118,0,0,0,-1.0969,-1.0976,-1.0979,-1.0994,-1.0998,-1.0988,-1.099,-1.1027,-1.1027,-1.1043,-1.1042,-1.1043,-1.1043,-1.1117,-1.1118,-1.1148,0,0,0,-1.0968,-1.0974,-1.0978,-1.0982,-1.0997,-1.1012,-1.0997,-1.1025,-1.1028,-1.1042,-1.1043,-1.1044,-1.1116,-1.1117,-1.1146,-1.1162,0,0,0,-1.0967,-1.0974,-1.0979,-1.0982,-1.0993,-1.1012,-1.1014,-1.1026,-1.1028,-1.1042,-1.1044,-1.1116,-1.1117,-1.1144,-1.1159,-1.1185,0,0,0,-1.0968,-1.1004,-1.098,-1.1019,-1.0993,-1.103,-1.1014,-1.1041,-1.1057,-1.1043,-1.1116,-1.1118,-1.1144,-1.1157,-1.1183,-1.1209,-1.1219,0,0,-1.1017,-1.101,-1.1033,-1.1012,-1.1056,-1.1026,-1.1074,-1.1083,-1.1078,-1.1105,-1.1107,-1.1147,-1.1159,-1.1184,-1.1277,-1.1285,0,0,0,-1.105,-1.1067,-1.1077,-1.1094,-1.1102,-1.1111,-1.1112,-1.1116,-1.1139,-1.1093,-1.1162,-1.1169,-1.1184,-1.1196,-1.1204,-1.1217,-1.1123,-1.1123,-1.1123,-1.1126,-1.112,-1.1159,-1.1157,-1.1173,-1.1175,-1.1188,-1.1193,-1.118,-1.1197,-1.1205,-1.1262,-1.1276,-1.1282,-1.1296,-1.1217,-1.1218,-1.1218,-1.1218,-1.1197,-1.1221,-1.1207,-1.1239,-1.1233,-1.126,-1.1264,-1.1255,-1.128,-1.1255,-1.1268,-1.1242,-1.1292,-1.1304,-1.122,-1.122,-1.1219,-1.1219,-1.1219,-1.1247,-1.1258,-1.1263,-1.1288,-1.1307,-1.1304,-1.1329,-1.1322,-1.1315,-1.1328,-1.1337,-1.1337,-1.1337,-1.1333,-1.1333,-1.1333,-1.1334,-1.1334,-1.1334,-1.1297,-1.1302,-1.1325,-1.1339,-1.135,-1.1363,-1.1368,-1.1378,-1.1388,-1.1381,-1.1381,-1.1369,-1.1297,-1.128,-1.1337,-1.1336,-1.1336,-1.1336,-1.1335,-1.1373,-1.1356,-1.1391,-1.1402,-1.142,-1.1441,-1.1432,-1.1455,-1.1463,-1.1476,-1.1461,-1.1409,-1.1402,-1.1396,-1.1382,-1.1461,-1.1461,-1.1461,-1.1461,-1.1416,-1.1412,-1.1448,-1.1467,-1.1485,-1.1482,-1.1523,-1.1527,-1.1529,-1.1534,-1.1521,-1.1502,-1.1496,-1.1492,-1.1484,-1.1471,-1.1571,-1.1571,-1.1571,-1.1464,-1.1462,-1.1498,-1.1501,-1.1514,-1.1527,-1.1566,-1.1589,-1.1587,-1.1575,-1.1538,-1.1533,-1.1502,-1.1491,-1.1479,-1.1467,-1.1443,0,0]}]]